﻿測定場所 (Monitoring sites),日付 (Measurement date),時間 (Measurement time),線量率 最大値 (max) μGy/h,線量率 最小値 (min) μGy/h,線量率 平均値 (average) μGy/h,
江戸川 (Edogawa),2013-12-22,23:01～24:00,0.0828,0.0735,0.0775,
江戸川 (Edogawa),2013-12-22,22:01～23:00,0.0868,0.0731,0.0779,
江戸川 (Edogawa),2013-12-22,21:01～22:00,0.0825,0.0733,0.0784,
江戸川 (Edogawa),2013-12-22,20:01～21:00,0.0824,0.0729,0.0780,
江戸川 (Edogawa),2013-12-22,19:01～20:00,0.0839,0.0724,0.0778,
江戸川 (Edogawa),2013-12-22,18:01～19:00,0.0852,0.0723,0.0780,
江戸川 (Edogawa),2013-12-22,17:01～18:00,0.0852,0.0720,0.0775,
江戸川 (Edogawa),2013-12-22,16:01～17:00,0.0858,0.0735,0.0781,
江戸川 (Edogawa),2013-12-22,15:01～16:00,0.0837,0.0734,0.0783,
江戸川 (Edogawa),2013-12-22,14:01～15:00,0.0847,0.0735,0.0780,
江戸川 (Edogawa),2013-12-22,13:01～14:00,0.0861,0.0721,0.0779,
江戸川 (Edogawa),2013-12-22,12:01～13:00,0.0836,0.0735,0.0780,
江戸川 (Edogawa),2013-12-22,11:01～12:00,0.0826,0.0733,0.0779,
江戸川 (Edogawa),2013-12-22,10:01～11:00,0.0853,0.0734,0.0776,
江戸川 (Edogawa),2013-12-22,09:01～10:00,0.0852,0.0730,0.0772,
江戸川 (Edogawa),2013-12-22,08:01～09:00,0.0809,0.0713,0.0766,
江戸川 (Edogawa),2013-12-22,07:01～08:00,0.0827,0.0723,0.0765,
江戸川 (Edogawa),2013-12-22,06:01～07:00,0.0818,0.0722,0.0769,
江戸川 (Edogawa),2013-12-22,05:01～06:00,0.0815,0.0720,0.0770,
江戸川 (Edogawa),2013-12-22,04:01～05:00,0.0837,0.0726,0.0768,
江戸川 (Edogawa),2013-12-22,03:01～04:00,0.0826,0.0726,0.0773,
江戸川 (Edogawa),2013-12-22,02:01～03:00,0.0842,0.0725,0.0769,
江戸川 (Edogawa),2013-12-22,01:01～02:00,0.0840,0.0718,0.0771,
江戸川 (Edogawa),2013-12-22,00:01～01:00,0.0814,0.0726,0.0768,
江戸川 (Edogawa),2013-12-21,23:01～24:00,0.0833,0.0735,0.0774,
江戸川 (Edogawa),2013-12-21,22:01～23:00,0.0808,0.0726,0.0770,
江戸川 (Edogawa),2013-12-21,21:01～22:00,0.0836,0.0728,0.0774,
江戸川 (Edogawa),2013-12-21,20:01～21:00,0.0843,0.0711,0.0780,
江戸川 (Edogawa),2013-12-21,19:01～20:00,0.0825,0.0734,0.0784,
江戸川 (Edogawa),2013-12-21,18:01～19:00,0.0834,0.0724,0.0778,
江戸川 (Edogawa),2013-12-21,17:01～18:00,0.0854,0.0732,0.0782,
江戸川 (Edogawa),2013-12-21,16:01～17:00,0.0846,0.0732,0.0788,
江戸川 (Edogawa),2013-12-21,15:01～16:00,0.0842,0.0740,0.0784,
江戸川 (Edogawa),2013-12-21,14:01～15:00,0.0852,0.0725,0.0791,
江戸川 (Edogawa),2013-12-21,13:01～14:00,0.0855,0.0739,0.0794,
江戸川 (Edogawa),2013-12-21,12:01～13:00,0.0845,0.0742,0.0790,
江戸川 (Edogawa),2013-12-21,11:01～12:00,0.0856,0.0743,0.0790,
江戸川 (Edogawa),2013-12-21,10:01～11:00,0.0837,0.0736,0.0786,
江戸川 (Edogawa),2013-12-21,09:01～10:00,0.0833,0.0730,0.0781,
江戸川 (Edogawa),2013-12-21,08:01～09:00,0.0853,0.0734,0.0783,
江戸川 (Edogawa),2013-12-21,07:01～08:00,0.0828,0.0715,0.0771,
江戸川 (Edogawa),2013-12-21,06:01～07:00,0.0821,0.0726,0.0775,
江戸川 (Edogawa),2013-12-21,05:01～06:00,0.0843,0.0724,0.0772,
江戸川 (Edogawa),2013-12-21,04:01～05:00,0.0820,0.0725,0.0771,
江戸川 (Edogawa),2013-12-21,03:01～04:00,0.0839,0.0706,0.0769,
江戸川 (Edogawa),2013-12-21,02:01～03:00,0.0837,0.0731,0.0768,
江戸川 (Edogawa),2013-12-21,01:01～02:00,0.0826,0.0726,0.0774,
江戸川 (Edogawa),2013-12-21,00:01～01:00,0.0818,0.0723,0.0769,
江戸川 (Edogawa),2013-12-20,23:01～24:00,0.0839,0.0722,0.0772,
江戸川 (Edogawa),2013-12-20,22:01～23:00,0.0845,0.0716,0.0763,
江戸川 (Edogawa),2013-12-20,21:01～22:00,0.0830,0.0728,0.0764,
江戸川 (Edogawa),2013-12-20,20:01～21:00,0.0834,0.0728,0.0769,
江戸川 (Edogawa),2013-12-20,19:01～20:00,0.0861,0.0725,0.0777,
江戸川 (Edogawa),2013-12-20,18:01～19:00,0.0865,0.0742,0.0802,
江戸川 (Edogawa),2013-12-20,17:01～18:00,0.0990,0.0785,0.0867,
江戸川 (Edogawa),2013-12-20,16:01～17:00,0.106,0.0906,0.0986,
江戸川 (Edogawa),2013-12-20,15:01～16:00,0.0972,0.0787,0.0874,
江戸川 (Edogawa),2013-12-20,14:01～15:00,0.0844,0.0722,0.0782,
江戸川 (Edogawa),2013-12-20,13:01～14:00,0.0816,0.0734,0.0774,
江戸川 (Edogawa),2013-12-20,12:01～13:00,0.0829,0.0731,0.0783,
江戸川 (Edogawa),2013-12-20,11:01～12:00,0.0865,0.0734,0.0794,
江戸川 (Edogawa),2013-12-20,10:01～11:00,0.0879,0.0730,0.0794,
江戸川 (Edogawa),2013-12-20,09:01～10:00,0.0824,0.0726,0.0772,
江戸川 (Edogawa),2013-12-20,08:01～09:00,0.0841,0.0728,0.0779,
江戸川 (Edogawa),2013-12-20,07:01～08:00,0.0877,0.0725,0.0778,
江戸川 (Edogawa),2013-12-20,06:01～07:00,0.0804,0.0726,0.0759,
江戸川 (Edogawa),2013-12-20,05:01～06:00,0.0806,0.0702,0.0738,
江戸川 (Edogawa),2013-12-20,04:01～05:00,0.0800,0.0696,0.0746,
江戸川 (Edogawa),2013-12-20,03:01～04:00,0.0816,0.0701,0.0743,
江戸川 (Edogawa),2013-12-20,02:01～03:00,0.0762,0.0691,0.0719,
江戸川 (Edogawa),2013-12-20,01:01～02:00,0.0752,0.0677,0.0718,
江戸川 (Edogawa),2013-12-20,00:01～01:00,0.0773,0.0687,0.0725,
江戸川 (Edogawa),2013-12-19,23:01～24:00,0.0797,0.0691,0.0727,
江戸川 (Edogawa),2013-12-19,22:01～23:00,0.0770,0.0686,0.0733,
江戸川 (Edogawa),2013-12-19,21:01～22:00,0.0831,0.0710,0.0759,
江戸川 (Edogawa),2013-12-19,20:01～21:00,0.0843,0.0735,0.0791,
江戸川 (Edogawa),2013-12-19,19:01～20:00,0.0850,0.0743,0.0793,
江戸川 (Edogawa),2013-12-19,18:01～19:00,0.0849,0.0723,0.0783,
江戸川 (Edogawa),2013-12-19,17:01～18:00,0.0836,0.0732,0.0782,
江戸川 (Edogawa),2013-12-19,16:01～17:00,0.0844,0.0738,0.0783,
江戸川 (Edogawa),2013-12-19,15:01～16:00,0.0866,0.0753,0.0800,
江戸川 (Edogawa),2013-12-19,14:01～15:00,0.0848,0.0749,0.0799,
江戸川 (Edogawa),2013-12-19,13:01～14:00,0.0838,0.0748,0.0795,
江戸川 (Edogawa),2013-12-19,12:01～13:00,0.0857,0.0748,0.0807,
江戸川 (Edogawa),2013-12-19,11:01～12:00,0.0834,0.0739,0.0786,
江戸川 (Edogawa),2013-12-19,10:01～11:00,0.0821,0.0721,0.0771,
江戸川 (Edogawa),2013-12-19,09:01～10:00,0.0827,0.0729,0.0767,
江戸川 (Edogawa),2013-12-19,08:01～09:00,0.0834,0.0729,0.0783,
江戸川 (Edogawa),2013-12-19,07:01～08:00,0.0839,0.0720,0.0788,
江戸川 (Edogawa),2013-12-19,06:01～07:00,0.0837,0.0728,0.0784,
江戸川 (Edogawa),2013-12-19,05:01～06:00,0.0827,0.0732,0.0773,
江戸川 (Edogawa),2013-12-19,04:01～05:00,0.0829,0.0755,0.0787,
江戸川 (Edogawa),2013-12-19,03:01～04:00,0.0842,0.0729,0.0782,
江戸川 (Edogawa),2013-12-19,02:01～03:00,0.0837,0.0734,0.0783,
江戸川 (Edogawa),2013-12-19,01:01～02:00,0.0888,0.0748,0.0808,
江戸川 (Edogawa),2013-12-19,00:01～01:00,0.0875,0.0753,0.0822,
江戸川 (Edogawa),2013-12-18,23:01～24:00,0.0888,0.0780,0.0825,
江戸川 (Edogawa),2013-12-18,22:01～23:00,0.0861,0.0763,0.0821,
江戸川 (Edogawa),2013-12-18,21:01～22:00,0.0894,0.0782,0.0835,
江戸川 (Edogawa),2013-12-18,20:01～21:00,0.0892,0.0775,0.0838,
江戸川 (Edogawa),2013-12-18,19:01～20:00,0.0948,0.0765,0.0824,
江戸川 (Edogawa),2013-12-18,18:01～19:00,0.0892,0.0758,0.0821,
江戸川 (Edogawa),2013-12-18,17:01～18:00,0.0894,0.0751,0.0828,
江戸川 (Edogawa),2013-12-18,16:01～17:00,0.0906,0.0776,0.0843,
江戸川 (Edogawa),2013-12-18,15:01～16:00,0.0884,0.0756,0.0821,
江戸川 (Edogawa),2013-12-18,14:01～15:00,0.0895,0.0768,0.0818,
江戸川 (Edogawa),2013-12-18,13:01～14:00,0.0867,0.0745,0.0806,
江戸川 (Edogawa),2013-12-18,12:01～13:00,0.0876,0.0766,0.0814,
江戸川 (Edogawa),2013-12-18,11:01～12:00,0.0879,0.0740,0.0814,
江戸川 (Edogawa),2013-12-18,10:01～11:00,0.0865,0.0749,0.0814,
江戸川 (Edogawa),2013-12-18,09:01～10:00,0.0861,0.0743,0.0812,
江戸川 (Edogawa),2013-12-18,08:01～09:00,0.0855,0.0746,0.0812,
江戸川 (Edogawa),2013-12-18,07:01～08:00,0.0876,0.0743,0.0810,
江戸川 (Edogawa),2013-12-18,06:01～07:00,0.0870,0.0763,0.0809,
江戸川 (Edogawa),2013-12-18,05:01～06:00,0.0863,0.0749,0.0803,
江戸川 (Edogawa),2013-12-18,04:01～05:00,0.0859,0.0738,0.0807,
江戸川 (Edogawa),2013-12-18,03:01～04:00,0.0875,0.0739,0.0807,
江戸川 (Edogawa),2013-12-18,02:01～03:00,0.0860,0.0732,0.0808,
江戸川 (Edogawa),2013-12-18,01:01～02:00,0.0858,0.0745,0.0803,
江戸川 (Edogawa),2013-12-18,00:01～01:00,0.0859,0.0755,0.0804,
江戸川 (Edogawa),2013-12-17,23:01～24:00,0.0854,0.0746,0.0802,
江戸川 (Edogawa),2013-12-17,22:01～23:00,0.0875,0.0739,0.0803,
江戸川 (Edogawa),2013-12-17,21:01～22:00,0.0868,0.0756,0.0804,
江戸川 (Edogawa),2013-12-17,20:01～21:00,0.0848,0.0759,0.0801,
江戸川 (Edogawa),2013-12-17,19:01～20:00,0.0858,0.0755,0.0802,
江戸川 (Edogawa),2013-12-17,18:01～19:00,0.0874,0.0728,0.0800,
江戸川 (Edogawa),2013-12-17,17:01～18:00,0.0858,0.0757,0.0808,
江戸川 (Edogawa),2013-12-17,16:01～17:00,0.0860,0.0741,0.0803,
江戸川 (Edogawa),2013-12-17,15:01～16:00,0.0874,0.0746,0.0805,
江戸川 (Edogawa),2013-12-17,14:01～15:00,0.0879,0.0763,0.0810,
江戸川 (Edogawa),2013-12-17,13:01～14:00,0.0853,0.0759,0.0810,
江戸川 (Edogawa),2013-12-17,12:01～13:00,0.0858,0.0758,0.0813,
江戸川 (Edogawa),2013-12-17,11:01～12:00,0.0858,0.0748,0.0809,
江戸川 (Edogawa),2013-12-17,10:01～11:00,0.0869,0.0744,0.0812,
江戸川 (Edogawa),2013-12-17,09:01～10:00,0.0872,0.0747,0.0808,
江戸川 (Edogawa),2013-12-17,08:01～09:00,0.0848,0.0741,0.0801,
江戸川 (Edogawa),2013-12-17,07:01～08:00,0.0861,0.0752,0.0803,
江戸川 (Edogawa),2013-12-17,06:01～07:00,0.0871,0.0749,0.0804,
江戸川 (Edogawa),2013-12-17,05:01～06:00,0.0845,0.0742,0.0797,
江戸川 (Edogawa),2013-12-17,04:01～05:00,0.0859,0.0740,0.0800,
江戸川 (Edogawa),2013-12-17,03:01～04:00,0.0875,0.0754,0.0810,
江戸川 (Edogawa),2013-12-17,02:01～03:00,0.0859,0.0767,0.0805,
江戸川 (Edogawa),2013-12-17,01:01～02:00,0.0840,0.0735,0.0798,
江戸川 (Edogawa),2013-12-17,00:01～01:00,0.0855,0.0756,0.0806,
江戸川 (Edogawa),2013-12-16,23:01～24:00,0.0841,0.0747,0.0802,
江戸川 (Edogawa),2013-12-16,22:01～23:00,0.0865,0.0733,0.0801,
江戸川 (Edogawa),2013-12-16,21:01～22:00,0.0845,0.0747,0.0799,
江戸川 (Edogawa),2013-12-16,20:01～21:00,0.0861,0.0738,0.0797,
江戸川 (Edogawa),2013-12-16,19:01～20:00,0.0868,0.0755,0.0806,
江戸川 (Edogawa),2013-12-16,18:01～19:00,0.0846,0.0760,0.0795,
江戸川 (Edogawa),2013-12-16,17:01～18:00,0.0868,0.0737,0.0801,
江戸川 (Edogawa),2013-12-16,16:01～17:00,0.0862,0.0751,0.0801,
江戸川 (Edogawa),2013-12-16,15:01～16:00,0.0877,0.0734,0.0801,
江戸川 (Edogawa),2013-12-16,14:01～15:00,0.0870,0.0747,0.0808,
江戸川 (Edogawa),2013-12-16,13:01～14:00,0.0873,0.0756,0.0808,
江戸川 (Edogawa),2013-12-16,12:01～13:00,0.0897,0.0756,0.0811,
江戸川 (Edogawa),2013-12-16,11:01～12:00,0.0865,0.0745,0.0805,
江戸川 (Edogawa),2013-12-16,10:01～11:00,0.0864,0.0741,0.0811,
江戸川 (Edogawa),2013-12-16,09:01～10:00,0.0870,0.0757,0.0801,
江戸川 (Edogawa),2013-12-16,08:01～09:00,0.0855,0.0739,0.0793,
江戸川 (Edogawa),2013-12-16,07:01～08:00,0.0862,0.0740,0.0799,
江戸川 (Edogawa),2013-12-16,06:01～07:00,0.0848,0.0731,0.0795,
江戸川 (Edogawa),2013-12-16,05:01～06:00,0.0852,0.0730,0.0799,
江戸川 (Edogawa),2013-12-16,04:01～05:00,0.0847,0.0732,0.0796,
江戸川 (Edogawa),2013-12-16,03:01～04:00,0.0866,0.0736,0.0798,
江戸川 (Edogawa),2013-12-16,02:01～03:00,0.0854,0.0730,0.0797,
江戸川 (Edogawa),2013-12-16,01:01～02:00,0.0854,0.0739,0.0799,
江戸川 (Edogawa),2013-12-16,00:01～01:00,0.0848,0.0742,0.0800,
